Hoe ontstaat hagel?

StormCell - Onweer anders bekeken

Welkom op Stormcell.be, dé website waar onweer al sinds 2011 anders wordt bekeken.

Op onze site vindt de bezoeker duidelijke weermodellen, data van het StormCell weerstation in regio Ninove (België) én kan men het onweer live volgen via lightningmaps.org.

We beschikken over een Facebook pagina waar weer gerelateerde berichten worden gedeeld en waar we zelf ook waarschuwingen voor onweer of noodweer uitsturen indien nodig.

U leest het goed: indien nodig, dus geen onheilspellende berichten als de storm of het onweer slechts in een glas water zal woeden. We zijn niet uit op sensatie of het zaaien van angst. We bekijken het onweer met klare kijk op de feiten. 

[Source: ADDS]
METAR
EBBR 230920Z 12007KT CAVOK 08/04 Q1037 NOSIG =
EBBR 230519Z 2306/2412 12005KT 3500 BR MIFG NSC BECMG 2306/2308 8000 NSW PROB30 TEMPO 2404/2407 3500 BR MIFG
TAF
EBBR 230519Z 2306/2412 12005KT 3500 BR MIFG NSC BECMG 2306/2308 8000 NSW PROB30 TEMPO 2404/2407 3500 BR MIFG =

Visweer Vlissingen

StormCell is een non profit organisatie zonder oogmerk tot sensatie